| time (UTC) | temp F | wind direction | speed MPH | gust MPH | rain 1hr in | rain 24hr in | rain mn in | humidity % | barometer mb |
| 20260506234915 | 55 | 336 | 3.0 | 6.0 | 0.00 | 0.00 | 0.00 | 33 | 1015.7 |
| 20260506234414 | 55 | 316 | 1.0 | 1.0 | 0.00 | 0.00 | 0.00 | 35 | 1015.5 |
| 20260506233911 | 55 | 324 | 2.0 | 3.0 | 0.00 | 0.00 | 0.00 | 31 | 1015.5 |
| 20260506233407 | 55 | 330 | 1.0 | 1.0 | 0.00 | 0.00 | 0.00 | 32 | 1015.7 |
| 20260506232904 | 55 | 327 | 2.0 | 2.0 | 0.00 | 0.00 | 0.00 | 31 | 1015.6 |
| 20260506232400 | 55 | 318 | 2.0 | 2.0 | 0.00 | 0.00 | 0.00 | 32 | 1015.6 |
| 20260506231856 | 55 | 312 | 1.0 | 2.0 | 0.00 | 0.00 | 0.00 | 32 | 1015.8 |
| 20260506231354 | 55 | 322 | 1.0 | 2.0 | 0.00 | 0.00 | 0.00 | 33 | 1015.7 |
| 20260506230851 | 55 | 304 | 3.0 | 3.0 | 0.00 | 0.00 | 0.00 | 31 | 1015.8 |
| 20260506230348 | 56 | 297 | 3.0 | 3.0 | 0.00 | 0.00 | 0.00 | 31 | 1016.0 |
| 20260506225844 | 57 | 333 | 6.0 | 7.0 | 0.00 | 0.00 | 0.00 | 29 | 1015.9 |
| 20260506225342 | 57 | 311 | 2.0 | 2.0 | 0.00 | 0.00 | 0.00 | 31 | 1015.8 |
| 20260506224839 | 55 | 326 | 2.0 | 3.0 | 0.00 | 0.00 | 0.00 | 31 | 1015.9 |
| 20260506224336 | 56 | 325 | 2.0 | 2.0 | 0.00 | 0.00 | 0.00 | 31 | 1015.9 |
| 20260506223832 | 56 | 323 | 2.0 | 5.0 | 0.00 | 0.00 | 0.00 | 31 | 1016.1 |
| 20260506223327 | 56 | 306 | 2.0 | 3.0 | 0.00 | 0.00 | 0.00 | 32 | 1016.0 |
| 20260506222825 | 56 | 306 | 1.0 | 2.0 | 0.00 | 0.00 | 0.00 | 31 | 1015.8 |
| 20260506222319 | 55 | 302 | 3.0 | 3.0 | 0.00 | 0.00 | 0.00 | 32 | 1015.7 |
| 20260506221813 | 55 | 353 | 3.0 | 6.0 | 0.00 | 0.00 | 0.00 | 34 | 1016.0 |
| 20260506221310 | 56 | 264 | 4.0 | 5.0 | 0.00 | 0.00 | 0.00 | 33 | 1015.8 |
| 20260506220808 | 56 | 296 | 3.0 | 3.0 | 0.00 | 0.00 | 0.00 | 30 | 1015.8 |
| 20260506220302 | 55 | 324 | 3.0 | 3.0 | 0.00 | 0.00 | 0.00 | 34 | 1015.9 |
| 20260506215759 | 55 | 313 | 3.0 | 3.0 | 0.00 | 0.00 | 0.00 | 31 | 1015.9 |
| 20260506215255 | 57 | 268 | 1.0 | 2.0 | 0.00 | 0.00 | 0.00 | 31 | 1015.8 |
| 20260506214751 | 57 | 215 | 6.0 | 8.0 | 0.00 | 0.00 | 0.00 | 30 | 1015.8 |
| 20260506214248 | 56 | 325 | 2.0 | 2.0 | 0.00 | 0.00 | 0.00 | 31 | 1016.0 |
| 20260506213746 | 56 | 234 | 1.0 | 2.0 | 0.00 | 0.00 | 0.00 | 33 | 1015.9 |
| 20260506213243 | 57 | 263 | 3.0 | 3.0 | 0.00 | 0.00 | 0.00 | 33 | 1015.9 |
| 20260506212741 | 56 | 256 | 3.0 | 3.0 | 0.00 | 0.00 | 0.00 | 32 | 1015.9 |
| 20260506212236 | 55 | 277 | 2.0 | 2.0 | 0.00 | 0.00 | 0.00 | 32 | 1016.1 |
| 20260506211731 | 55 | 324 | 3.0 | 5.0 | 0.00 | 0.00 | 0.00 | 33 | 1016.2 |
| 20260506211228 | 55 | 276 | 2.0 | 2.0 | 0.00 | 0.00 | 0.00 | 36 | 1016.2 |
| 20260506210725 | 55 | 325 | 6.0 | 9.0 | 0.00 | 0.00 | 0.00 | 33 | 1016.4 |
| 20260506210222 | 54 | 310 | 3.0 | 3.0 | 0.00 | 0.00 | 0.00 | 34 | 1016.3 |
| 20260506205719 | 56 | 322 | 5.0 | 10.0 | 0.00 | 0.00 | 0.00 | 32 | 1016.4 |
| 20260506205214 | 54 | 327 | 3.0 | 3.0 | 0.00 | 0.00 | 0.00 | 34 | 1016.6 |
| 20260506204712 | 54 | 279 | 5.0 | 7.0 | 0.00 | 0.00 | 0.00 | 33 | 1016.6 |
| 20260506204209 | 55 | 333 | 1.0 | 2.0 | 0.00 | 0.00 | 0.00 | 34 | 1016.4 |
| 20260506203707 | 55 | 302 | 2.0 | 2.0 | 0.00 | 0.00 | 0.00 | 32 | 1016.5 |
| 20260506203204 | 56 | 325 | 9.0 | 14.0 | 0.00 | 0.00 | 0.00 | 31 | 1016.7 |
| 20260506202702 | 55 | 273 | 3.0 | 5.0 | 0.00 | 0.00 | 0.00 | 36 | 1016.6 |
| 20260506202157 | 54 | 307 | 3.0 | 5.0 | 0.00 | 0.00 | 0.00 | 34 | 1016.7 |
| 20260506201655 | 56 | 305 | 2.0 | 3.0 | 0.00 | 0.00 | 0.00 | 35 | 1016.6 |
| 20260506201151 | 56 | 279 | 2.0 | 3.0 | 0.00 | 0.00 | 0.00 | 33 | 1016.7 |
| 20260506200648 | 56 | 297 | 2.0 | 3.0 | 0.00 | 0.00 | 0.00 | 33 | 1016.7 |
| 20260506200144 | 54 | 297 | 4.0 | 5.0 | 0.00 | 0.00 | 0.00 | 33 | 1016.9 |
| 20260506195641 | 55 | 250 | 7.0 | 10.0 | 0.00 | 0.00 | 0.00 | 33 | 1016.8 |
| 20260506195137 | 55 | 284 | 9.0 | 10.0 | 0.00 | 0.00 | 0.00 | 32 | 1017.0 |
| 20260506194635 | 55 | 315 | 6.0 | 8.0 | 0.00 | 0.00 | 0.00 | 33 | 1017.1 |
| 20260506194131 | 54 | 307 | 3.0 | 5.0 | 0.00 | 0.00 | 0.00 | 35 | 1016.9 |
| 20260506193629 | 53 | 318 | 2.0 | 2.0 | 0.00 | 0.00 | 0.00 | 34 | 1016.9 |
| 20260506193126 | 53 | 322 | 2.0 | 2.0 | 0.00 | 0.00 | 0.00 | 33 | 1017.0 |
| 20260506192623 | 54 | 275 | 4.0 | 5.0 | 0.00 | 0.00 | 0.00 | 34 | 1017.0 |
| 20260506192118 | 55 | 272 | 4.0 | 6.0 | 0.00 | 0.00 | 0.00 | 33 | 1017.4 |
| 20260506191616 | 55 | 230 | 6.0 | 9.0 | 0.00 | 0.00 | 0.00 | 35 | 1017.1 |
| 20260506191111 | 55 | 317 | 5.0 | 7.0 | 0.00 | 0.00 | 0.00 | 34 | 1017.1 |
| 20260506190609 | 54 | 280 | 3.0 | 5.0 | 0.00 | 0.00 | 0.00 | 36 | 1017.2 |
| 20260506190106 | 55 | 6 | 5.0 | 8.0 | 0.00 | 0.00 | 0.00 | 35 | 1017.0 |
| 20260506185603 | 55 | 269 | 3.0 | 5.0 | 0.00 | 0.00 | 0.00 | 35 | 1017.2 |
| 20260506185059 | 56 | 320 | 4.0 | 6.0 | 0.00 | 0.00 | 0.00 | 36 | 1017.4 |
| 20260506184556 | 54 | 297 | 4.0 | 6.0 | 0.00 | 0.00 | 0.00 | 37 | 1017.2 |
| 20260506184054 | 53 | 284 | 5.0 | 7.0 | 0.00 | 0.00 | 0.00 | 34 | 1017.2 |
| 20260506183550 | 54 | 265 | 3.0 | 3.0 | 0.00 | 0.00 | 0.00 | 37 | 1017.3 |
| 20260506183046 | 54 | 307 | 6.0 | 9.0 | 0.00 | 0.00 | 0.00 | 36 | 1017.1 |
| 20260506182544 | 54 | 212 | 8.0 | 9.0 | 0.00 | 0.00 | 0.00 | 35 | 1017.2 |
| 20260506182041 | 53 | 277 | 3.0 | 5.0 | 0.00 | 0.00 | 0.00 | 41 | 1017.2 |
| 20260506181539 | 53 | 216 | 6.0 | 8.0 | 0.00 | 0.00 | 0.00 | 36 | 1017.4 |
| 20260506181035 | 55 | 358 | 7.0 | 8.0 | 0.00 | 0.00 | 0.00 | 33 | 1017.5 |
| 20260506180532 | 54 | 332 | 3.0 | 3.0 | 0.00 | 0.00 | 0.00 | 37 | 1017.4 |
| 20260506180029 | 52 | 326 | 4.0 | 6.0 | 0.00 | 0.00 | 0.00 | 38 | 1017.8 |
| 20260506175525 | 53 | 354 | 8.0 | 9.0 | 0.00 | 0.00 | 0.00 | 36 | 1017.7 |
| 20260506175022 | 54 | 319 | 5.0 | 7.0 | 0.00 | 0.00 | 0.00 | 36 | 1017.7 |
| 20260506174521 | 53 | 273 | 3.0 | 3.0 | 0.00 | 0.00 | 0.00 | 37 | 1017.7 |
| 20260506174016 | 53 | 297 | 5.0 | 6.0 | 0.00 | 0.00 | 0.00 | 36 | 1017.7 |
| 20260506173514 | 53 | 294 | 3.0 | 5.0 | 0.00 | 0.00 | 0.00 | 38 | 1017.8 |
| 20260506173011 | 52 | 303 | 3.0 | 5.0 | 0.00 | 0.00 | 0.00 | 37 | 1018.0 |
| 20260506172508 | 52 | 309 | 9.0 | 10.0 | 0.00 | 0.00 | 0.00 | 36 | 1017.7 |
| 20260506172004 | 51 | 308 | 4.0 | 6.0 | 0.00 | 0.00 | 0.00 | 39 | 1017.9 |
| 20260506171502 | 51 | 292 | 2.0 | 3.0 | 0.00 | 0.00 | 0.00 | 39 | 1018.0 |
| 20260506170959 | 51 | 300 | 4.0 | 5.0 | 0.00 | 0.00 | 0.00 | 39 | 1017.9 |
| 20260506170455 | 51 | 319 | 2.0 | 3.0 | 0.00 | 0.00 | 0.00 | 41 | 1017.8 |
| 20260506165948 | 51 | 293 | 4.0 | 6.0 | 0.00 | 0.00 | 0.00 | 41 | 1018.1 |
| 20260506165447 | 51 | 301 | 2.0 | 2.0 | 0.00 | 0.00 | 0.00 | 40 | 1017.8 |
| 20260506164942 | 51 | 237 | 3.0 | 6.0 | 0.00 | 0.00 | 0.00 | 40 | 1018.0 |
| 20260506164439 | 50 | 256 | 4.0 | 6.0 | 0.00 | 0.00 | 0.00 | 41 | 1018.1 |
| 20260506163937 | 50 | 322 | 4.0 | 5.0 | 0.00 | 0.00 | 0.00 | 41 | 1018.0 |
| 20260506163432 | 50 | 307 | 1.0 | 1.0 | 0.00 | 0.00 | 0.00 | 40 | 1018.0 |
| 20260506162927 | 51 | 326 | 3.0 | 6.0 | 0.00 | 0.00 | 0.00 | 39 | 1018.0 |
| 20260506162425 | 51 | 306 | 3.0 | 3.0 | 0.00 | 0.00 | 0.00 | 41 | 1018.1 |
| 20260506161922 | 50 | 256 | 3.0 | 3.0 | 0.00 | 0.00 | 0.00 | 41 | 1017.8 |
| 20260506161420 | 50 | 291 | 5.0 | 7.0 | 0.00 | 0.00 | 0.00 | 40 | 1018.0 |
| 20260506160917 | 50 | 292 | 4.0 | 6.0 | 0.00 | 0.00 | 0.00 | 40 | 1017.9 |
| 20260506160414 | 51 | 340 | 3.0 | 6.0 | 0.00 | 0.00 | 0.00 | 39 | 1017.9 |
| 20260506155912 | 51 | 295 | 5.0 | 8.0 | 0.00 | 0.00 | 0.00 | 41 | 1017.9 |
| 20260506155409 | 50 | 228 | 5.0 | 8.0 | 0.00 | 0.00 | 0.00 | 42 | 1017.8 |
| 20260506153531 | 51 | 288 | 1.0 | 2.0 | 0.00 | 0.00 | 0.00 | 42 | 1018.1 |
| 20260506153028 | 50 | 310 | 0.0 | 1.0 | 0.00 | 0.00 | 0.00 | 44 | 1017.8 |
| 20260506152525 | 50 | 314 | 2.0 | 2.0 | 0.00 | 0.00 | 0.00 | 43 | 1018.0 |
| 20260506152024 | 50 | 298 | 3.0 | 5.0 | 0.00 | 0.00 | 0.00 | 43 | 1017.9 |
| 20260506151521 | 50 | 243 | 3.0 | 3.0 | 0.00 | 0.00 | 0.00 | 43 | 1017.8 |
| 20260506151018 | 49 | 222 | 5.0 | 6.0 | 0.00 | 0.00 | 0.00 | 44 | 1018.0 |
| 20260506150514 | 49 | 291 | 2.0 | 3.0 | 0.00 | 0.00 | 0.00 | 45 | 1017.8 |
| 20260506150011 | 48 | 235 | 1.0 | 2.0 | 0.00 | 0.00 | 0.00 | 48 | 1017.6 |
| 20260506145508 | 48 | 278 | 3.0 | 5.0 | 0.00 | 0.00 | 0.00 | 46 | 1017.9 |
| 20260506145005 | 49 | 275 | 1.0 | 2.0 | 0.00 | 0.00 | 0.00 | 46 | 1017.9 |
| 20260506144502 | 48 | 333 | 2.0 | 2.0 | 0.00 | 0.00 | 0.00 | 47 | 1017.8 |
| 20260506143959 | 48 | 323 | 2.0 | 2.0 | 0.00 | 0.00 | 0.00 | 51 | 1017.7 |
| 20260506143456 | 47 | 324 | 2.0 | 2.0 | 0.00 | 0.00 | 0.00 | 49 | 1017.7 |
| 20260506142955 | 47 | 326 | 3.0 | 3.0 | 0.00 | 0.00 | 0.00 | 48 | 1018.1 |
| 20260506142452 | 46 | 322 | 1.0 | 1.0 | 0.00 | 0.00 | 0.00 | 49 | 1017.8 |
| 20260506141950 | 46 | 317 | 0.0 | 1.0 | 0.00 | 0.00 | 0.00 | 50 | 1017.9 |
| 20260506141448 | 46 | 315 | 2.0 | 2.0 | 0.00 | 0.00 | 0.00 | 53 | 1017.9 |
| 20260506140947 | 45 | 324 | 1.0 | 2.0 | 0.00 | 0.00 | 0.00 | 52 | 1017.7 |
| 20260506140443 | 45 | 329 | 1.0 | 1.0 | 0.00 | 0.00 | 0.00 | 55 | 1017.5 |
| 20260506135939 | 44 | 312 | 2.0 | 3.0 | 0.00 | 0.00 | 0.00 | 56 | 1017.6 |
| 20260506135437 | 44 | 289 | 2.0 | 3.0 | 0.00 | 0.00 | 0.00 | 58 | 1017.7 |
| 20260506134933 | 44 | 324 | 1.0 | 1.0 | 0.00 | 0.00 | 0.00 | 55 | 1017.7 |
| 20260506134429 | 44 | 315 | 1.0 | 1.0 | 0.00 | 0.00 | 0.00 | 57 | 1017.6 |
| 20260506133926 | 43 | 323 | 1.0 | 1.0 | 0.00 | 0.00 | 0.00 | 59 | 1017.5 |
| 20260506133423 | 43 | 319 | 0.0 | 1.0 | 0.00 | 0.00 | 0.00 | 59 | 1017.5 |
| 20260506132920 | 43 | 316 | 2.0 | 2.0 | 0.00 | 0.00 | 0.00 | 60 | 1017.4 |
| 20260506132417 | 42 | 327 | 1.0 | 1.0 | 0.00 | 0.00 | 0.00 | 64 | 1017.5 |
| 20260506131914 | 41 | 323 | 1.0 | 1.0 | 0.00 | 0.00 | 0.00 | 65 | 1017.2 |
| 20260506131411 | 41 | 322 | 1.0 | 1.0 | 0.00 | 0.00 | 0.00 | 66 | 1017.3 |
| 20260506130908 | 40 | 323 | 0.0 | 1.0 | 0.00 | 0.00 | 0.00 | 69 | 1017.2 |
| 20260506130404 | 40 | 323 | 2.0 | 2.0 | 0.00 | 0.00 | 0.00 | 69 | 1017.3 |
| 20260506125902 | 40 | 324 | 0.0 | 1.0 | 0.00 | 0.00 | 0.00 | 71 | 1017.2 |
| 20260506125401 | 39 | 324 | 2.0 | 3.0 | 0.00 | 0.00 | 0.00 | 69 | 1017.3 |
| 20260506124858 | 38 | 322 | 1.0 | 2.0 | 0.00 | 0.00 | 0.00 | 71 | 1017.0 |
| 20260506124355 | 38 | 321 | 0.0 | 1.0 | 0.00 | 0.00 | 0.00 | 72 | 1017.1 |
| 20260506123853 | 37 | 320 | 2.0 | 2.0 | 0.00 | 0.00 | 0.00 | 72 | 1017.2 |
| 20260506123351 | 37 | 320 | 1.0 | 2.0 | 0.00 | 0.00 | 0.00 | 74 | 1017.0 |
| 20260506122848 | 37 | 320 | 1.0 | 1.0 | 0.00 | 0.00 | 0.00 | 75 | 1016.8 |
| 20260506122345 | 37 | 320 | 1.0 | 1.0 | 0.00 | 0.00 | 0.00 | 75 | 1016.8 |
| 20260506121843 | 36 | 320 | 1.0 | 1.0 | 0.00 | 0.00 | 0.00 | 76 | 1016.7 |
| 20260506121340 | 36 | 320 | 0.0 | 0.0 | 0.00 | 0.00 | 0.00 | 83 | 1016.7 |
| 20260506120837 | 36 | 320 | 0.0 | 0.0 | 0.00 | 0.00 | 0.00 | 85 | 1016.6 |
| 20260506120334 | 36 | 320 | 0.0 | 0.0 | 0.00 | 0.00 | 0.00 | 84 | 1016.6 |
| 20260506115831 | 36 | 320 | 0.0 | 0.0 | 0.00 | 0.00 | 0.00 | 83 | 1016.5 |
| 20260506115330 | 36 | 320 | 0.0 | 0.0 | 0.00 | 0.00 | 0.00 | 81 | 1016.3 |
| 20260506114828 | 36 | 320 | 0.0 | 0.0 | 0.00 | 0.00 | 0.00 | 80 | 1016.2 |
| 20260506114325 | 36 | 320 | 0.0 | 0.0 | 0.00 | 0.00 | 0.00 | 79 | 1016.2 |
| 20260506113824 | 37 | 320 | 0.0 | 0.0 | 0.00 | 0.00 | 0.00 | 79 | 1016.4 |
| 20260506113321 | 37 | 320 | 1.0 | 1.0 | 0.00 | 0.00 | 0.00 | 75 | 1016.1 |
| 20260506112817 | 37 | 319 | 0.0 | 0.0 | 0.00 | 0.00 | 0.00 | 77 | 1016.3 |
| 20260506112314 | 37 | 319 | 0.0 | 0.0 | 0.00 | 0.00 | 0.00 | 75 | 1015.9 |
| 20260506111812 | 37 | 319 | 0.0 | 1.0 | 0.00 | 0.00 | 0.00 | 76 | 1016.1 |
| 20260506111310 | 37 | 319 | 0.0 | 0.0 | 0.00 | 0.00 | 0.00 | 74 | 1016.1 |
| 20260506110807 | 37 | 319 | 1.0 | 1.0 | 0.00 | 0.00 | 0.00 | 73 | 1016.1 |
| 20260506110304 | 37 | 319 | 1.0 | 2.0 | 0.00 | 0.00 | 0.00 | 74 | 1016.0 |
| 20260506105800 | 38 | 319 | 0.0 | 0.0 | 0.00 | 0.00 | 0.00 | 75 | 1015.8 |
| 20260506105257 | 38 | 319 | 0.0 | 0.0 | 0.00 | 0.00 | 0.00 | 74 | 1015.6 |
| 20260506104755 | 38 | 319 | 0.0 | 0.0 | 0.00 | 0.00 | 0.00 | 73 | 1015.4 |
| 20260506104253 | 38 | 319 | 0.0 | 0.0 | 0.00 | 0.00 | 0.00 | 74 | 1015.8 |
| 20260506103750 | 38 | 319 | 0.0 | 0.0 | 0.00 | 0.00 | 0.00 | 74 | 1015.6 |
| 20260506103247 | 38 | 319 | 0.0 | 0.0 | 0.00 | 0.00 | 0.00 | 73 | 1015.6 |
| 20260506102745 | 38 | 319 | 0.0 | 0.0 | 0.00 | 0.00 | 0.00 | 73 | 1015.7 |
| 20260506102243 | 38 | 319 | 1.0 | 1.0 | 0.00 | 0.00 | 0.00 | 73 | 1015.4 |
| 20260506101739 | 38 | 319 | 0.0 | 1.0 | 0.00 | 0.00 | 0.00 | 73 | 1015.7 |
| 20260506101235 | 38 | 319 | 0.0 | 0.0 | 0.00 | 0.00 | 0.00 | 72 | 1015.5 |
| 20260506100734 | 38 | 319 | 0.0 | 0.0 | 0.00 | 0.00 | 0.00 | 72 | 1015.4 |
| 20260506100232 | 38 | 319 | 1.0 | 1.0 | 0.00 | 0.00 | 0.00 | 73 | 1015.5 |
| 20260506095730 | 38 | 319 | 0.0 | 0.0 | 0.00 | 0.00 | 0.00 | 74 | 1015.4 |
| 20260506095226 | 39 | 320 | 0.0 | 0.0 | 0.00 | 0.00 | 0.00 | 71 | 1015.3 |
| 20260506094723 | 39 | 319 | 0.0 | 1.0 | 0.00 | 0.00 | 0.00 | 71 | 1015.3 |
| 20260506094221 | 39 | 319 | 0.0 | 0.0 | 0.00 | 0.00 | 0.00 | 70 | 1015.0 |
| 20260506093720 | 39 | 319 | 0.0 | 0.0 | 0.00 | 0.00 | 0.00 | 70 | 1015.1 |
| 20260506093216 | 39 | 319 | 0.0 | 1.0 | 0.00 | 0.00 | 0.00 | 69 | 1015.2 |
| 20260506092714 | 39 | 319 | 0.0 | 0.0 | 0.00 | 0.00 | 0.00 | 69 | 1015.4 |
| 20260506092212 | 39 | 319 | 0.0 | 0.0 | 0.00 | 0.00 | 0.00 | 69 | 1015.2 |
| 20260506091709 | 39 | 319 | 0.0 | 0.0 | 0.00 | 0.00 | 0.00 | 68 | 1015.3 |
| 20260506091206 | 39 | 319 | 0.0 | 1.0 | 0.00 | 0.00 | 0.00 | 67 | 1015.3 |
| 20260506090704 | 39 | 319 | 0.0 | 0.0 | 0.00 | 0.00 | 0.00 | 67 | 1015.2 |
| 20260506090201 | 39 | 319 | 1.0 | 1.0 | 0.00 | 0.00 | 0.00 | 66 | 1015.0 |
| 20260506085658 | 39 | 319 | 0.0 | 0.0 | 0.00 | 0.00 | 0.00 | 68 | 1015.0 |
| 20260506085153 | 39 | 318 | 1.0 | 1.0 | 0.00 | 0.00 | 0.00 | 68 | 1014.8 |
| 20260506084650 | 39 | 318 | 1.0 | 1.0 | 0.00 | 0.00 | 0.00 | 69 | 1014.7 |
| 20260506084147 | 39 | 318 | 0.0 | 0.0 | 0.00 | 0.00 | 0.00 | 68 | 1014.9 |
| 20260506083644 | 39 | 318 | 1.0 | 1.0 | 0.00 | 0.00 | 0.00 | 68 | 1014.9 |
| 20260506083142 | 39 | 318 | 2.0 | 2.0 | 0.00 | 0.00 | 0.00 | 68 | 1014.8 |
| 20260506082638 | 38 | 318 | 1.0 | 1.0 | 0.00 | 0.00 | 0.00 | 69 | 1014.8 |
| 20260506082134 | 38 | 318 | 1.0 | 1.0 | 0.00 | 0.00 | 0.00 | 70 | 1014.4 |
| 20260506081632 | 38 | 318 | 0.0 | 0.0 | 0.00 | 0.00 | 0.00 | 71 | 1014.4 |
| 20260506081130 | 38 | 318 | 0.0 | 0.0 | 0.00 | 0.00 | 0.00 | 72 | 1014.4 |
| 20260506080627 | 37 | 318 | 1.0 | 1.0 | 0.00 | 0.00 | 0.00 | 74 | 1014.3 |
| 20260506080124 | 37 | 318 | 0.0 | 0.0 | 0.00 | 0.00 | 0.00 | 80 | 1014.2 |
| 20260506073108 | 36 | 318 | 0.0 | 0.0 | 0.00 | 0.00 | 0.00 | 89 | 1014.4 |
| 20260506072604 | 36 | 318 | 0.0 | 0.0 | 0.00 | 0.00 | 0.00 | 88 | 1014.3 |
| 20260506072102 | 36 | 318 | 0.0 | 0.0 | 0.00 | 0.00 | 0.00 | 87 | 1014.0 |
| 20260506071559 | 36 | 318 | 0.0 | 0.0 | 0.00 | 0.00 | 0.00 | 87 | 1014.3 |
| 20260506071057 | 37 | 318 | 0.0 | 0.0 | 0.00 | 0.00 | 0.00 | 87 | 1014.3 |
| 20260506070554 | 37 | 318 | 0.0 | 0.0 | 0.00 | 0.00 | 0.00 | 86 | 1014.2 |
| 20260506062028 | 38 | 318 | 0.0 | 0.0 | 0.00 | 0.00 | 0.00 | 76 | 1014.2 |
| 20260506061524 | 39 | 318 | 0.0 | 0.0 | 0.00 | 0.00 | 0.00 | 76 | 1014.3 |
| 20260506061022 | 39 | 318 | 0.0 | 0.0 | 0.00 | 0.00 | 0.00 | 70 | 1014.2 |
| 20260506060520 | 40 | 318 | 0.0 | 0.0 | 0.00 | 0.00 | 0.00 | 73 | 1013.9 |
| 20260506050949 | 42 | 318 | 0.0 | 0.0 | 0.00 | 0.00 | 0.00 | 63 | 1013.4 |
| 20260506050447 | 42 | 318 | 1.0 | 1.0 | 0.00 | 0.00 | 0.00 | 60 | 1013.5 |
| 20260506044937 | 42 | 318 | 0.0 | 0.0 | 0.00 | 0.02 | 0.02 | 68 | 1013.1 |
| 20260506044435 | 43 | 318 | 0.0 | 0.0 | 0.00 | 0.02 | 0.02 | 64 | 1013.2 |
| 20260506043931 | 43 | 318 | 0.0 | 0.0 | 0.00 | 0.02 | 0.02 | 64 | 1013.0 |
| 20260506043429 | 42 | 318 | 0.0 | 0.0 | 0.00 | 0.02 | 0.02 | 66 | 1013.2 |
| 20260506042927 | 43 | 318 | 0.0 | 0.0 | 0.00 | 0.02 | 0.02 | 66 | 1013.1 |
| 20260506042426 | 43 | 318 | 0.0 | 0.0 | 0.00 | 0.02 | 0.02 | 62 | 1012.9 |
| 20260506041924 | 43 | 318 | 0.0 | 0.0 | 0.00 | 0.02 | 0.02 | 61 | 1012.9 |
| 20260506041421 | 44 | 318 | 0.0 | 0.0 | 0.00 | 0.02 | 0.02 | 64 | 1013.1 |
| 20260506040918 | 44 | 318 | 0.0 | 0.0 | 0.00 | 0.02 | 0.02 | 63 | 1013.2 |
| 20260506040416 | 45 | 318 | 0.0 | 0.0 | 0.00 | 0.02 | 0.02 | 63 | 1013.1 |
| 20260506035911 | 46 | 317 | 0.0 | 0.0 | 0.00 | 0.02 | 0.02 | 54 | 1012.9 |
| 20260506035409 | 46 | 317 | 0.0 | 1.0 | 0.00 | 0.02 | 0.02 | 48 | 1013.0 |
| 20260506034906 | 47 | 317 | 0.0 | 1.0 | 0.00 | 0.02 | 0.02 | 45 | 1012.7 |
| 20260506034403 | 47 | 317 | 0.0 | 1.0 | 0.00 | 0.02 | 0.02 | 45 | 1012.6 |
| 20260506033900 | 47 | 316 | 1.0 | 1.0 | 0.00 | 0.02 | 0.02 | 45 | 1012.6 |
| 20260506033357 | 47 | 321 | 2.0 | 2.0 | 0.00 | 0.02 | 0.02 | 44 | 1012.8 |
| 20260506032854 | 47 | 321 | 0.0 | 1.0 | 0.00 | 0.02 | 0.02 | 45 | 1012.7 |
| 20260506032351 | 47 | 321 | 0.0 | 0.0 | 0.00 | 0.02 | 0.02 | 45 | 1012.7 |
| 20260506031848 | 48 | 321 | 0.0 | 0.0 | 0.00 | 0.02 | 0.02 | 44 | 1012.3 |
| 20260506031345 | 48 | 321 | 1.0 | 1.0 | 0.00 | 0.02 | 0.02 | 44 | 1012.9 |
| 20260506030842 | 48 | 320 | 1.0 | 1.0 | 0.00 | 0.02 | 0.02 | 43 | 1012.4 |
| 20260506030340 | 49 | 319 | 2.0 | 2.0 | 0.00 | 0.02 | 0.02 | 43 | 1012.7 |
| 20260506025837 | 49 | 317 | 2.0 | 3.0 | 0.00 | 0.02 | 0.02 | 42 | 1012.2 |
| 20260506025333 | 50 | 317 | 3.0 | 3.0 | 0.00 | 0.02 | 0.02 | 41 | 1012.4 |
| 20260506024830 | 50 | 323 | 1.0 | 2.0 | 0.00 | 0.02 | 0.02 | 41 | 1012.3 |
| 20260506024327 | 50 | 321 | 3.0 | 3.0 | 0.00 | 0.02 | 0.02 | 40 | 1012.3 |
| 20260506023823 | 51 | 327 | 2.0 | 2.0 | 0.00 | 0.02 | 0.02 | 41 | 1012.3 |
| 20260506023320 | 51 | 313 | 2.0 | 2.0 | 0.00 | 0.02 | 0.02 | 40 | 1012.1 |
| 20260506022817 | 51 | 302 | 3.0 | 5.0 | 0.00 | 0.02 | 0.02 | 40 | 1012.2 |
| 20260506022315 | 51 | 313 | 1.0 | 1.0 | 0.00 | 0.02 | 0.02 | 40 | 1012.1 |
| 20260506021813 | 52 | 318 | 2.0 | 2.0 | 0.00 | 0.02 | 0.02 | 39 | 1011.9 |
| 20260506021309 | 52 | 316 | 2.0 | 2.0 | 0.00 | 0.02 | 0.02 | 38 | 1011.8 |
| 20260506020806 | 52 | 309 | 3.0 | 5.0 | 0.00 | 0.02 | 0.02 | 38 | 1011.7 |
| 20260506020304 | 52 | 317 | 2.0 | 2.0 | 0.00 | 0.02 | 0.02 | 39 | 1011.8 |
| 20260506015802 | 52 | 344 | 3.0 | 3.0 | 0.00 | 0.02 | 0.02 | 37 | 1011.8 |
| 20260506015259 | 53 | 325 | 1.0 | 1.0 | 0.00 | 0.02 | 0.02 | 38 | 1011.6 |
| 20260506014755 | 53 | 316 | 2.0 | 2.0 | 0.00 | 0.02 | 0.02 | 38 | 1011.4 |
| 20260506014252 | 53 | 348 | 1.0 | 2.0 | 0.00 | 0.02 | 0.02 | 36 | 1011.5 |
| 20260506013749 | 53 | 311 | 3.0 | 3.0 | 0.00 | 0.02 | 0.02 | 36 | 1011.5 |
| 20260506013246 | 53 | 331 | 5.0 | 7.0 | 0.00 | 0.02 | 0.02 | 36 | 1011.4 |
| 20260506012743 | 53 | 321 | 2.0 | 2.0 | 0.00 | 0.02 | 0.02 | 38 | 1011.5 |
| 20260506012239 | 53 | 307 | 1.0 | 2.0 | 0.00 | 0.02 | 0.02 | 36 | 1011.3 |
| 20260506011737 | 53 | 319 | 1.0 | 1.0 | 0.00 | 0.02 | 0.02 | 36 | 1011.3 |
| 20260506011233 | 53 | 322 | 1.0 | 1.0 | 0.00 | 0.02 | 0.02 | 35 | 1010.9 |
| 20260506010732 | 53 | 313 | 1.0 | 1.0 | 0.00 | 0.02 | 0.02 | 35 | 1011.0 |
| 20260506010228 | 53 | 318 | 1.0 | 1.0 | 0.00 | 0.02 | 0.02 | 35 | 1011.3 |
| 20260506005726 | 53 | 316 | 1.0 | 1.0 | 0.00 | 0.02 | 0.02 | 36 | 1011.0 |
| 20260506005222 | 53 | 312 | 2.0 | 3.0 | 0.00 | 0.02 | 0.02 | 37 | 1010.6 |
| 20260506004718 | 54 | 291 | 5.0 | 7.0 | 0.00 | 0.02 | 0.02 | 34 | 1010.9 |
| 20260506004216 | 54 | 307 | 2.0 | 2.0 | 0.00 | 0.02 | 0.02 | 34 | 1010.9 |
| 20260506003712 | 54 | 314 | 1.0 | 1.0 | 0.00 | 0.02 | 0.02 | 35 | 1010.7 |
| 20260506003208 | 54 | 281 | 3.0 | 3.0 | 0.00 | 0.02 | 0.02 | 36 | 1010.8 |
| 20260506002704 | 54 | 293 | 3.0 | 6.0 | 0.00 | 0.02 | 0.02 | 35 | 1010.7 |
| 20260506002200 | 54 | 283 | 4.0 | 5.0 | 0.00 | 0.02 | 0.02 | 35 | 1010.5 |
| 20260506001656 | 54 | 318 | 5.0 | 6.0 | 0.00 | 0.02 | 0.02 | 34 | 1010.5 |
| 20260506001154 | 55 | 313 | 3.0 | 5.0 | 0.00 | 0.02 | 0.02 | 34 | 1010.7 |
| 20260506000651 | 55 | 310 | 3.0 | 3.0 | 0.00 | 0.02 | 0.02 | 33 | 1010.4 |
| 20260506000148 | 55 | 283 | 5.0 | 8.0 | 0.00 | 0.02 | 0.02 | 33 | 1010.6 |
| 20260505235646 | 55 | 333 | 1.0 | 2.0 | 0.00 | 0.02 | 0.02 | 34 | 1010.5 |